FW6835 Weather Reports


time (UTC)temp
C
wind
direction
speed
KPH
gust
KPH
rain 1hr
cm
rain 24hr
cm
rain mn
cm
humidity
%
barometer
mb
20260508081041 6 67 3.2 6.4 0.00 0.25 0.00 100 1020.5
20260508080541 6 85 0.0 6.4 0.00 0.25 0.00 100 1020.4
20260508080057 6 97 3.2 6.4 0.00 0.25 0.00 100 1020.3
20260508075539 6 99 1.6 6.4 0.00 0.36 0.00 100 1020.3
20260508075038 6 78 1.6 6.4 0.00 0.36 0.00 100 1020.2
20260508074638 6 86 1.6 9.7 0.00 0.36 0.00 100 1020.1
20260508074037 6 73 1.6 12.9 0.00 0.36 0.00 100 1020.1
20260508073537 6 76 3.2 14.5 0.00 0.36 0.00 100 1020.0
20260508073043 6 69 4.8 14.5 0.00 0.36 0.00 100 1019.9
20260508072534 6 100 3.2 8.0 0.00 0.36 0.00 100 1020.0
20260508072034 6 82 1.6 9.7 0.00 0.36 0.00 100 1019.9
20260508071534 6 74 0.0 6.4 0.00 0.36 0.00 100 1019.8
20260508071032 6 69 1.6 4.8 0.00 0.36 0.00 100 1019.8
20260508070531 6 61 0.0 4.8 0.00 0.36 0.00 100 1019.8
20260508070033 6 61 1.6 8.0 0.00 0.36 0.00 100 1019.6
20260508065534 6 31 0.0 9.7 0.00 0.41 0.00 100 1019.7
20260508065029 6 89 0.0 9.7 0.00 0.41 0.00 100 1019.6
20260508064540 5 127 0.0 9.7 0.00 0.41 0.00 100 1019.5
20260508064029 5 127 3.2 9.7 0.00 0.41 0.00 100 1019.5
20260508063528 5 140 1.6 9.7 0.00 0.41 0.00 100 1019.4
20260508063028 5 86 1.6 8.0 0.00 0.41 0.00 99 1019.4
20260508062526 5 74 3.2 8.0 0.00 0.41 0.00 100 1019.4
20260508062026 5 69 1.6 6.4 0.00 0.41 0.00 100 1019.4
20260508061527 5 76 1.6 6.4 0.00 0.41 0.00 99 1019.4
20260508061025 5 76 1.6 6.4 0.00 0.41 0.00 100 1019.3
20260508060524 5 97 1.6 6.4 0.00 0.41 0.00 99 1019.2
20260508060022 5 88 3.2 6.4 0.00 0.41 0.00 99 1019.1
20260508055524 5 158 0.0 6.4 0.00 0.43 0.00 99 1019.1
20260508055022 5 90 1.6 4.8 0.00 0.43 0.00 99 1019.1
20260508054537 5 277 0.0 9.7 0.00 0.43 0.00 99 1019.0
20260508054021 5 99 0.0 9.7 0.00 0.43 0.00 99 1018.9
20260508053521 5 61 1.6 8.0 0.00 0.43 0.00 99 1018.8
20260508053021 5 66 1.6 8.0 0.00 0.43 0.00 99 1018.9
20260508052520 5 121 1.6 6.4 0.00 0.43 0.00 99 1018.9
20260508052019 5 94 1.6 6.4 0.00 0.43 0.00 99 1019.0
20260508051520 5 102 1.6 6.4 0.00 0.43 0.00 99 1018.8
20260508051020 5 275 0.0 6.4 0.00 0.43 0.00 99 1019.0
20260508050518 5 93 1.6 6.4 0.00 0.43 0.00 99 1018.8
20260508050018 5 93 1.6 8.0 0.00 0.43 0.00 99 1018.7
20260508045518 5 64 1.6 8.0 0.00 0.43 0.00 99 1018.6
20260508045017 5 90 3.2 9.7 0.00 0.43 0.00 100 1018.6
20260508044517 5 82 1.6 4.8 0.00 0.43 0.00 100 1018.6
20260508044017 5 222 0.0 4.8 0.00 0.43 0.00 99 1018.5
20260508043515 5 225 0.0 3.2 0.00 0.43 0.00 99 1018.5
20260508043014 5 240 0.0 4.8 0.00 0.43 0.00 99 1018.5
20260508042513 5 227 0.0 4.8 0.00 0.43 0.00 99 1018.6
20260508042011 5 137 0.0 3.2 0.00 0.43 0.00 99 1018.5
20260508041511 5 86 0.0 0.0 0.00 0.43 0.00 99 1018.6
20260508041011 5 86 0.0 4.8 0.00 0.43 0.00 99 1018.6
20260508040511 5 86 0.0 4.8 0.00 0.43 0.00 99 1018.6
20260508040032 5 76 0.0 3.2 0.00 0.43 0.00 99 1018.7
20260508035508 5 75 0.0 6.4 0.00 0.56 0.00 99 1018.6
20260508035012 5 75 1.6 6.4 0.00 0.56 0.00 99 1018.6
20260508034507 5 72 0.0 4.8 0.00 0.56 0.00 99 1018.6
20260508034006 5 72 0.0 4.8 0.00 0.56 0.00 99 1018.5
20260508033505 5 97 1.6 4.8 0.00 0.56 0.00 99 1018.5
20260508033006 5 103 0.0 0.0 0.00 0.56 0.00 99 1018.4
20260508032504 5 96 0.0 3.2 0.00 0.56 0.00 99 1018.3
20260508032005 5 42 0.0 3.2 0.00 0.56 0.00 99 1018.3
20260508031512 5 43 0.0 3.2 0.00 0.56 0.00 99 1018.3
20260508031002 5 292 0.0 6.4 0.00 0.56 0.00 99 1018.2
20260508030504 5 42 0.0 6.4 0.00 0.56 0.00 99 1018.2
20260508030003 5 119 0.0 6.4 0.00 0.56 0.00 99 1018.2
20260508025503 5 75 0.0 6.4 0.00 0.69 0.00 99 1018.1
20260508025002 5 81 3.2 6.4 0.00 0.69 0.00 99 1018.2
20260508024501 5 108 0.0 3.2 0.00 0.69 0.00 99 1018.1
20260508024002 5 111 0.0 3.2 0.00 0.69 0.00 99 1018.1
20260508023601 5 110 0.0 3.2 0.00 0.69 0.00 99 1018.1
20260508023101 5 40 0.0 1.6 0.00 0.69 0.00 99 1018.2
20260508022559 5 40 0.0 3.2 0.00 0.69 0.00 99 1018.1
20260508022058 5 36 0.0 3.2 0.00 0.69 0.00 99 1018.2
20260508021558 5 344 0.0 3.2 0.00 0.69 0.00 99 1018.3
20260508021058 5 339 0.0 3.2 0.00 0.69 0.00 99 1018.2
20260508020558 5 338 0.0 1.6 0.00 0.69 0.00 99 1018.3
20260508020059 5 337 0.0 3.2 0.00 0.69 0.00 99 1018.2
20260508015557 5 336 0.0 6.4 0.00 0.71 0.00 99 1018.2
20260508015056 5 329 0.0 6.4 0.00 0.71 0.00 99 1018.1
20260508014556 5 153 0.0 3.2 0.00 0.71 0.00 99 1018.2
20260508014056 5 153 0.0 4.8 0.00 0.71 0.00 99 1018.1
20260508013557 5 71 0.0 6.4 0.00 0.71 0.00 99 1018.1
20260508013055 5 65 0.0 6.4 0.00 0.71 0.00 99 1018.0
20260508012554 5 98 1.6 6.4 0.00 0.71 0.00 99 1018.0
20260508012055 5 59 1.6 6.4 0.00 0.71 0.00 99 1018.0
20260508011553 5 85 0.0 9.7 0.00 0.71 0.00 99 1018.1
20260508011052 5 78 3.2 9.7 0.00 0.71 0.00 99 1017.9
20260508010552 5 124 0.0 3.2 0.00 0.71 0.00 99 1017.8
20260508010052 5 115 0.0 9.7 0.00 0.71 0.00 99 1017.8
20260508005551 5 88 1.6 9.7 0.00 0.89 0.00 99 1017.7
20260508005050 5 116 1.6 8.0 0.00 0.89 0.00 99 1017.7
20260508004553 5 327 0.0 8.0 0.00 0.89 0.00 99 1017.7
20260508004050 5 75 0.0 6.4 0.00 0.89 0.00 99 1017.7
20260508003554 5 103 0.0 4.8 0.00 0.89 0.00 99 1017.7
20260508003051 5 103 0.0 4.8 0.00 0.89 0.00 99 1017.7
20260508002547 5 103 0.0 14.5 0.00 0.89 0.00 99 1017.7
20260508002048 5 72 1.6 14.5 0.00 0.89 0.00 99 1017.8
20260508001547 5 102 1.6 4.8 0.00 0.89 0.00 99 1017.8
20260508001046 5 72 0.0 4.8 0.00 0.89 0.00 99 1017.8
20260508000546 5 71 1.6 4.8 0.00 0.89 0.00 99 1017.7
20260508000050 5 98 0.0 4.8 0.00 0.89 0.00 99 1017.8
20260507235550 5 80 0.0 4.8 0.00 1.17 0.00 99 1017.9
20260507235046 5 62 1.6 8.0 0.00 1.17 0.00 99 1017.8
20260507234553 5 61 0.0 8.0 0.00 1.17 0.00 99 1017.9
20260507234045 5 104 0.0 4.8 0.00 1.17 0.00 99 1017.8
20260507233545 5 69 0.0 8.0 0.00 1.17 0.00 99 1017.8
20260507233108 5 41 0.0 9.7 0.00 1.17 0.00 99 1017.9
20260507232543 5 289 3.2 9.7 0.00 1.17 0.00 99 1017.7
20260507232047 5 90 0.0 6.4 0.00 1.17 0.00 99 1017.7
20260507231542 5 70 0.0 4.8 0.00 1.17 0.00 99 1017.8
20260507231042 5 81 0.0 8.0 0.00 1.17 0.00 99 1017.8
20260507230541 5 63 3.2 8.0 0.00 1.17 0.00 99 1017.8
20260507230046 5 63 3.2 8.0 0.00 1.17 0.00 99 1017.7
20260507225540 6 98 1.6 8.0 0.00 1.24 0.00 99 1017.9
20260507225041 6 140 1.6 4.8 0.00 1.24 0.00 99 1017.8
20260507224540 6 224 0.0 3.2 0.00 1.24 0.00 99 1017.7
20260507224143 6 225 0.0 3.2 0.00 1.24 0.00 99 1017.8
20260507223540 6 219 0.0 11.3 0.00 1.24 0.00 99 1017.7
20260507223054 6 80 3.2 11.3 0.00 1.24 0.00 99 1017.8
20260507222540 6 65 1.6 9.7 0.00 1.24 0.00 99 1017.7
20260507222038 6 78 1.6 9.7 0.00 1.24 0.00 99 1017.7
20260507221542 6 68 1.6 6.4 0.00 1.24 0.00 99 1017.8
20260507221037 6 76 1.6 6.4 0.00 1.24 0.00 99 1017.6
20260507220537 6 88 0.0 6.4 0.00 1.24 0.00 99 1017.7
20260507220038 6 79 1.6 8.0 0.00 1.24 0.00 99 1017.7
20260507215534 6 76 1.6 8.0 0.00 1.24 1.24 99 1017.6
20260507215034 6 56 1.6 6.4 0.00 1.24 1.24 99 1017.6
20260507214533 6 99 0.0 6.4 0.00 1.24 1.24 99 1017.6
20260507214035 6 88 0.0 8.0 0.00 1.24 1.24 99 1017.7
20260507213535 6 46 0.0 9.7 0.00 1.24 1.24 99 1017.7
20260507213034 6 63 1.6 9.7 0.00 1.24 1.24 99 1017.6
20260507212531 6 105 1.6 14.5 0.00 1.24 1.24 99 1017.5
20260507212032 6 90 3.2 14.5 0.00 1.24 1.24 99 1017.5
20260507211536 6 77 0.0 6.4 0.00 1.24 1.24 99 1017.4
20260507211028 6 53 1.6 9.7 0.00 1.24 1.24 99 1017.3
20260507210528 6 144 1.6 9.7 0.00 1.24 1.24 99 1017.5
20260507210031 6 99 0.0 6.4 0.00 1.24 1.24 99 1017.4
20260507205527 6 86 0.0 6.4 0.00 1.24 1.24 99 1017.3
20260507205026 6 79 1.6 9.7 0.00 1.24 1.24 99 1017.4
20260507204526 6 103 0.0 4.8 0.00 1.24 1.24 99 1017.3
20260507204027 6 136 0.0 4.8 0.00 1.24 1.24 99 1017.3
20260507203525 6 80 0.0 8.0 0.00 1.24 1.24 99 1017.3
20260507203026 6 52 0.0 8.0 0.00 1.24 1.24 99 1017.2
20260507202523 6 74 1.6 6.4 0.00 1.24 1.24 99 1017.1
20260507202026 6 79 3.2 6.4 0.00 1.24 1.24 99 1017.1
20260507201522 6 51 0.0 4.8 0.00 1.24 1.24 99 1017.1
20260507201022 6 95 1.6 9.7 0.00 1.24 1.24 99 1016.9
20260507200521 6 92 1.6 9.7 0.00 1.24 1.24 99 1016.9
20260507200022 6 113 1.6 12.9 0.00 1.24 1.24 99 1016.9
20260507195522 6 80 1.6 4.8 0.00 1.24 1.24 99 1016.8
20260507195020 6 81 0.0 11.3 0.00 1.24 1.24 99 1016.6
20260507194531 6 71 4.8 14.5 0.00 1.24 1.24 99 1016.6
20260507194018 6 315 1.6 14.5 0.00 1.24 1.24 99 1016.5
20260507193519 6 117 0.0 9.7 0.03 1.24 1.24 99 1016.5
20260507193018 6 128 1.6 9.7 0.03 1.24 1.24 99 1016.5
20260507192517 6 82 1.6 9.7 0.03 1.24 1.24 99 1016.3
20260507192015 6 59 1.6 8.0 0.03 1.24 1.24 99 1016.3
20260507191514 6 98 3.2 9.7 0.03 1.24 1.24 99 1016.2
20260507191018 6 110 1.6 9.7 0.03 1.24 1.24 99 1016.1
20260507190513 6 86 1.6 9.7 0.03 1.24 1.24 99 1016.1
20260507190018 6 49 3.2 8.0 0.03 1.24 1.24 99 1016.0
20260507185514 6 87 0.0 8.0 0.03 1.24 1.24 99 1015.9
20260507185013 6 67 0.0 9.7 0.03 1.24 1.24 99 1015.8
20260507184510 6 119 1.6 11.3 0.03 1.24 1.24 99 1015.7
20260507184011 6 110 1.6 11.3 0.03 1.24 1.24 99 1015.7
20260507183509 6 62 1.6 8.0 0.00 1.22 1.22 98 1015.6
20260507183013 6 73 1.6 9.7 0.00 1.22 1.22 98 1015.5
20260507182508 7 91 1.6 9.7 0.00 1.22 1.22 99 1015.5
20260507182009 7 109 3.2 9.7 0.00 1.22 1.22 99 1015.5
20260507181506 7 134 1.6 4.8 0.00 1.22 1.22 99 1015.3
20260507181006 7 137 0.0 4.8 0.03 1.22 1.22 99 1015.2
20260507180505 7 163 1.6 12.9 0.03 1.22 1.22 98 1015.3
20260507180005 7 123 1.6 12.9 0.03 1.22 1.22 98 1015.2
20260507175504 7 243 0.0 6.4 0.03 1.22 1.22 98 1015.2
20260507175004 7 74 0.0 8.0 0.03 1.22 1.22 98 1015.3
20260507174509 7 76 0.0 8.0 0.03 1.22 1.22 98 1015.2
20260507174001 7 113 1.6 4.8 0.05 1.22 1.22 99 1015.3
20260507173503 7 82 0.0 6.4 0.05 1.22 1.22 98 1015.2
20260507173118 7 82 1.6 6.4 0.05 1.22 1.22 98 1015.1
20260507172559 7 120 0.0 9.7 0.05 1.22 1.22 98 1015.0
20260507172058 7 159 0.0 4.8 0.05 1.22 1.22 98 1015.0
20260507171557 7 151 0.0 6.4 0.05 1.22 1.22 98 1014.8
20260507171057 7 77 1.6 16.1 0.03 1.19 1.19 98 1014.7
20260507170556 7 98 1.6 16.1 0.03 1.19 1.19 98 1014.7
20260507170058 7 160 0.0 8.0 0.03 1.19 1.19 98 1014.7
20260507165555 7 91 0.0 8.0 0.03 1.19 1.19 98 1014.7
20260507165055 7 90 1.6 9.7 0.03 1.19 1.19 98 1014.6
20260507164628 7 94 0.0 6.4 0.03 1.19 1.19 98 1014.6
20260507164054 7 11 1.6 6.4 0.00 1.17 1.17 98 1014.6
20260507163552 7 90 1.6 6.4 0.00 1.17 1.17 98 1014.5
20260507163055 7 71 0.0 6.4 0.00 1.17 1.17 98 1014.4
20260507162551 7 75 0.0 4.8 0.00 1.17 1.17 98 1014.5
20260507162052 7 63 0.0 9.7 0.00 1.17 1.17 98 1014.5
20260507161556 7 88 1.6 8.0 0.00 1.17 1.17 98 1014.5
20260507161051 7 71 0.0 12.9 0.00 1.17 1.17 98 1014.3
20260507160548 8 52 1.6 12.9 0.00 1.17 1.17 98 1014.3
20260507160048 8 70 1.6 8.0 0.00 1.17 1.17 98 1014.3
20260507155547 8 94 1.6 11.3 0.00 1.17 1.17 98 1014.3
20260507155048 8 5 1.6 11.3 0.00 1.17 1.17 98 1014.5
20260507154548 8 95 3.2 9.7 0.00 1.17 1.17 98 1014.4
20260507154046 8 71 0.0 9.7 0.00 1.17 1.17 98 1014.3
20260507153549 8 101 0.0 8.0 0.03 1.17 1.17 98 1014.3
20260507153046 8 52 0.0 8.0 0.03 1.17 1.17 98 1014.2
20260507152547 8 42 1.6 6.4 0.03 1.17 1.17 98 1014.0
20260507152044 8 71 0.0 6.4 0.05 1.17 1.17 98 1014.1
20260507151545 8 44 1.6 9.7 0.05 1.17 1.17 98 1013.9
20260507151047 8 90 1.6 9.7 0.05 1.17 1.17 98 1013.9
20260507150541 8 81 1.6 6.4 0.05 1.17 1.17 98 1013.8
20260507150045 8 42 1.6 6.4 0.05 1.17 1.17 98 1013.7
20260507145541 8 55 0.0 6.4 0.05 1.17 1.17 98 1013.7
20260507145041 8 57 1.6 6.4 0.05 1.17 1.17 98 1013.6
20260507144540 8 85 1.6 8.0 0.05 1.17 1.17 98 1013.6
20260507144039 8 24 1.6 8.0 0.05 1.17 1.17 98 1013.6
20260507143539 8 325 0.0 6.4 0.05 1.17 1.17 98 1013.4
20260507143041 8 349 1.6 8.0 0.05 1.17 1.17 98 1013.5
20260507142537 8 84 1.6 8.0 0.05 1.17 1.17 98 1013.5
20260507142037 8 64 1.6 4.8 0.03 1.14 1.14 98 1013.4
20260507141538 8 115 0.0 6.4 0.03 1.14 1.14 98 1013.5
20260507141040 8 86 1.6 6.4 0.03 1.14 1.14 98 1013.5
20260507140536 8 88 1.6 11.3 0.03 1.14 1.14 98 1013.4
20260507140041 8 103 1.6 11.3 0.00 1.12 1.12 98 1013.2
20260507135535 8 91 0.0 8.0 0.03 1.12 1.12 98 1013.4
20260507135035 8 5 1.6 8.0 0.03 1.12 1.12 98 1013.2
20260507134535 8 82 1.6 9.7 0.03 1.12 1.12 98 1013.2
20260507134034 8 53 3.2 9.7 0.03 1.12 1.12 98 1013.1
20260507133535 9 64 0.0 4.8 0.05 1.12 1.12 98 1013.0
20260507133035 8 64 0.0 6.4 0.05 1.12 1.12 98 1013.1
20260507132534 8 61 0.0 8.0 0.05 1.12 1.12 98 1013.1
20260507132033 8 79 3.2 8.0 0.05 1.12 1.12 98 1013.0
20260507131538 8 45 0.0 4.8 0.08 1.12 1.12 98 1013.1
20260507131033 8 76 1.6 8.0 0.08 1.12 1.12 98 1013.1
20260507130536 8 69 1.6 8.0 0.08 1.12 1.12 98 1013.1
20260507130038 8 34 1.6 6.4 0.08 1.12 1.12 98 1012.9
20260507125534 8 82 0.0 0.0 0.10 1.09 1.09 99 1013.0
20260507125030 8 342 0.0 4.8 0.10 1.09 1.09 98 1012.9
20260507124538 8 53 0.0 4.8 0.10 1.09 1.09 98 1012.8
20260507124030 8 85 0.0 4.8 0.10 1.09 1.09 98 1012.8
20260507123529 8 301 0.0 6.4 0.08 1.09 1.09 99 1012.7
20260507123029 8 296 1.6 6.4 0.08 1.09 1.09 98 1012.6
20260507122530 8 346 0.0 4.8 0.08 1.09 1.09 98 1012.6
20260507122026 8 42 0.0 8.0 0.05 1.07 1.07 98 1012.5
20260507121527 8 58 3.2 8.0 0.05 1.04 1.04 98 1012.5
20260507121026 8 67 3.2 6.4 0.05 1.04 1.04 99 1012.5
20260507120526 8 64 0.0 4.8 0.05 1.04 1.04 98 1012.4
20260507120026 8 67 1.6 4.8 0.03 1.02 1.02 98 1012.5
20260507115626 8 61 1.6 4.8 0.00 0.99 0.99 98 1012.4
20260507115024 8 66 1.6 8.0 0.00 0.99 0.99 98 1012.3
20260507114537 8 90 3.2 11.3 0.00 0.99 0.99 98 1012.2
20260507114024 8 59 1.6 11.3 0.00 0.99 0.99 98 1012.2
20260507113524 8 72 0.0 6.4 0.00 0.99 0.99 98 1012.3
20260507113039 9 78 0.0 4.8 0.00 0.99 0.99 99 1012.2
20260507112521 8 273 0.0 6.4 0.00 0.99 0.99 98 1012.1
20260507112021 8 61 1.6 6.4 0.00 0.99 0.99 98 1012.0
20260507111523 8 65 1.6 4.8 0.00 0.99 0.99 98 1012.0
20260507111019 8 79 1.6 6.4 0.00 0.99 0.99 98 1012.0
20260507110519 8 55 1.6 9.7 0.00 0.99 0.99 98 1012.0
20260507110019 9 5 1.6 9.7 0.00 0.99 0.99 98 1011.9
20260507105518 9 84 1.6 6.4 0.00 0.99 0.99 98 1011.9
20260507105018 8 52 1.6 6.4 0.00 0.99 0.99 98 1011.8
20260507104518 8 74 1.6 4.8 0.00 0.99 0.99 98 1011.7
20260507104017 9 90 1.6 12.9 0.00 0.99 0.99 98 1011.7
20260507103519 9 68 3.2 12.9 0.00 0.99 0.99 98 1011.7
20260507103020 9 343 0.0 8.0 0.00 0.99 0.99 98 1011.7
20260507102516 10 64 1.6 14.5 0.00 0.99 0.99 99 1011.7
20260507102015 10 36 3.2 14.5 0.03 0.99 0.99 99 1011.5
20260507101517 10 74 0.0 4.8 0.03 0.99 0.99 99 1011.5
20260507101018 10 60 0.0 4.8 0.03 0.99 0.99 99 1011.6
20260507100514 9 78 1.6 4.8 0.03 0.99 0.99 99 1011.6
20260507100014 9 81 0.0 4.8 0.03 0.99 0.99 99 1011.6
20260507095514 9 78 0.0 6.4 0.03 0.99 0.99 99 1011.5
20260507095014 9 73 0.0 6.4 0.03 0.99 0.99 99 1011.4
20260507094511 9 63 0.0 4.8 0.03 0.99 0.99 98 1011.4
20260507094011 8 57 0.0 4.8 0.03 0.99 0.99 98 1011.5
20260507093510 8 267 0.0 3.2 0.03 0.99 0.99 99 1011.3
20260507093010 8 267 0.0 3.2 0.03 0.99 0.99 99 1011.3
20260507092513 8 266 0.0 4.8 0.03 0.99 0.99 98 1011.2
20260507092010 9 67 0.0 4.8 0.00 0.99 0.99 98 1011.1
20260507091508 9 61 0.0 6.4 0.00 0.99 0.99 98 1011.1
20260507091007 9 29 1.6 9.7 0.00 0.99 0.99 98 1011.0
20260507090511 9 10 3.2 9.7 0.00 0.99 0.99 98 1010.9
20260507090006 9 79 0.0 4.8 0.00 0.99 0.99 99 1010.9
20260507085508 9 50 0.0 4.8 0.00 0.99 0.99 99 1010.8
20260507085006 9 74 1.6 6.4 0.00 0.99 0.99 99 1010.8
20260507084507 9 57 0.0 6.4 0.00 0.99 0.99 99 1010.7
20260507084004 9 63 0.0 0.0 0.00 0.99 0.99 99 1010.6
20260507083504 8 64 0.0 3.2 0.03 0.99 0.99 98 1010.6
20260507083004 8 65 0.0 6.4 0.03 0.99 0.99 99 1010.4
20260507082505 8 75 1.6 6.4 0.05 0.99 0.99 98 1010.5
20260507082002 9 84 0.0 4.8 0.05 0.99 0.99 98 1010.5
20260507081506 9 104 0.0 6.4 0.05 0.99 0.99 98 1010.4